(495311) = 2014 ED4

Discovered at Catalina on 2014-03-07 by CSS.

Orbit

Orbit type: Hungaria

Note: WebGL enabled browser required.

epoch2023-09-13.0
epoch JD2460200.5
perihelion date2021-05-03.28031
perihelion JD2459337.78031
argument of perihelion (°)248.15027
ascending node (°)150.14678
inclination (°)24.97431
eccentricity0.1190301
perihelion distance (AU)1.7080306
Tisserand w.r.t. Jupiter3.8
ΔV w.r.t. Earth (km/sec)11.3
semimajor axis (AU)1.9388071
mean anomaly (°)314.97179
mean daily motion (°/day)0.36509170
aphelion distance (AU)2.170
period (years)2.7
P-vector [x]0.74160798
P-vector [y]0.65542204
P-vector [z]-0.14296698
Q-vector [x]-0.63706106
Q-vector [y]0.75486161
Q-vector [z]0.15600370
absolute magnitude17.85
phase slope0.15
uncertainty0
referenceMPEC 2023-X152
observations used222
oppositions11
arc length (days)7549
first opposition used2003
last opposition used2023
residual rms (arc-secs)0.64
perturbers coarse indicatorM-v
perturbers precise indicator003Ek
first observation date used2003-02-09.0
last observation date used2023-10-11.0
computer nameMPCLINUX
Minimum Orbit Intersection Distances (in AU)
for orbit epoch: 2460200.5, reference: E2023-XF2
Mercury1.38503
Venus1.03305
Earth0.78798
Mars0.33826
Jupiter3.18028
Saturn7.25993
Uranus16.3901
Neptune28.1657

Observations

224 total observations over interval: 2003 02 09.41645 – 2023 10 11.397675
These data are available for download (format description).

Date (UT) J2000 RA J2000 Dec Magn Location Ref
2003 02 09.41645 09 35 44.93 +06 22 01.6 21.0   608 – Haleakala-AMOS MPS 628790
2003 02 09.42803 09 35 44.15 +06 22 18.5 20.7   608 – Haleakala-AMOS MPS 628790
2003 02 09.43850 09 35 43.45 +06 22 33.4 20.9   608 – Haleakala-AMOS MPS 628790
2004 08 23.15963 20 35 54.94 -08 46 41.0 20.0 V 691 – Steward Observatory, Kitt Peak-Spacewatch MPS 628790
2004 08 23.18673 20 35 53.62 -08 47 23.6 20.2 V 691 – Steward Observatory, Kitt Peak-Spacewatch MPS 628790
2004 08 23.21434 20 35 52.26 -08 48 06.8 20.1 V 691 – Steward Observatory, Kitt Peak-Spacewatch MPS 628790
2007 08 11.53831 02 26 15.12 -04 39 24.2 21.2 I 568 – Maunakea MPS 628790
2007 08 11.54918 02 26 16.25 -04 39 34.0 20.6 I 568 – Maunakea MPS 628790
2007 08 11.56677 02 26 18.03 -04 39 49.7 21.1 I 568 – Maunakea MPS 628790
2011 02 07.22385 07 52 47.78 +01 42 53.0 20.8 V 703 – Catalina Sky Survey MPS 628790
2011 02 07.23009 07 52 47.49 +01 43 03.0 20.1 V 703 – Catalina Sky Survey MPS 628790
2011 02 07.23631 07 52 47.10 +01 43 11.6 20.4 V 703 – Catalina Sky Survey MPS 628790
2011 02 07.24259 07 52 46.74 +01 43 20.6 20.0 V 703 – Catalina Sky Survey MPS 628790
2011 02 07.24884 07 52 46.41 +01 43 29.6 19.9 V 703 – Catalina Sky Survey MPS 628790
2014 03 07.46612 12 20 44.94 +17 56 26.7 20.3 V 703 – Catalina Sky Survey MPS 505494
2014 03 07.47111 12 20 44.64 +17 56 30.9 20.3 V 703 – Catalina Sky Survey MPS 505494
2014 03 07.47615 12 20 44.29 +17 56 38.5 20.3 V 703 – Catalina Sky Survey MPS 505494
2014 03 08.26308 12 20 05.77 +18 14 06.3 19.9 R 291 – LPL/Spacewatch II MPS 505494
2014 03 08.26574 12 20 05.62 +18 14 09.9 20.2 R 291 – LPL/Spacewatch II MPS 505494
2014 03 08.26840 12 20 05.48 +18 14 13.6 20.3 R 291 – LPL/Spacewatch II MPS 505494
2014 03 08.36170 12 20 00.53 +18 16 17.6 20.3 R 926 – Tenagra II Observatory, Nogales MPS 505494
2014 03 08.37575 12 19 59.79 +18 16 36.2 20.3 R 926 – Tenagra II Observatory, Nogales MPS 505494
2014 03 08.38979 12 19 59.04 +18 16 54.9 20.3 R 926 – Tenagra II Observatory, Nogales MPS 505494
2014 03 08.99899 12 19 28.30 +18 30 19.5 20.2 V 958 – Observatoire de Dax MPS 505494
2014 03 09.01071 12 19 27.70 +18 30 34.8 20.5 V 958 – Observatoire de Dax MPS 505494
2014 03 09.02312 12 19 27.01 +18 30 51.5 20.4 V 958 – Observatoire de Dax MPS 505494
2014 03 09.48913 12 19 02.68 +18 41 04.7 20.1 R 291 – LPL/Spacewatch II MPS 505494
2014 03 09.49197 12 19 02.45 +18 41 08.6 19.0 R 291 – LPL/Spacewatch II MPS 505494
2014 03 09.49482 12 19 02.33 +18 41 12.4 19.3 R 291 – LPL/Spacewatch II MPS 505494
2014 03 20.36040 12 08 53.27 +22 22 42.6 20.1 V G96 – Mt. Lemmon Survey MPS 506815
2014 03 20.36728 12 08 52.82 +22 22 50.1 19.9 V G96 – Mt. Lemmon Survey MPS 506815
2014 03 20.37415 12 08 52.44 +22 22 57.6 19.9 V G96 – Mt. Lemmon Survey MPS 506815
2014 03 20.38102 12 08 51.99 +22 23 05.2 20.0 V G96 – Mt. Lemmon Survey MPS 506815
2014 03 20.45860 12 08 47.28 +22 24 31.0 20.4 V G96 – Mt. Lemmon Survey MPS 506815
2014 03 20.46324 12 08 46.94 +22 24 36.1 20.5 V G96 – Mt. Lemmon Survey MPS 506815
2014 03 20.46790 12 08 46.68 +22 24 40.8 20.2 V G96 – Mt. Lemmon Survey MPS 506815
2014 03 20.47254 12 08 46.42 +22 24 45.3 20.4 V G96 – Mt. Lemmon Survey MPS 506815
2015 08 09.57810 00 49 49.872 -05 37 57.21 19.6 i F51 – Pan-STARRS 1, Haleakala MPS 628790
2015 08 09.58971 00 49 50.455 -05 38 11.50 19.6 i F51 – Pan-STARRS 1, Haleakala MPS 628790
2015 08 09.60128 00 49 51.036 -05 38 25.69 19.7 i F51 – Pan-STARRS 1, Haleakala MPS 628790
2015 08 09.61277 00 49 51.606 -05 38 39.97 19.9 i F51 – Pan-STARRS 1, Haleakala MPS 628790
2015 09 23.58253 00 57 28.28 -26 44 11.7 19.5 R Q60 – ISON-SSO Observatory, Siding Spring MPS 628790
2015 09 23.59182 00 57 27.87 -26 44 27.1 19.1 R Q60 – ISON-SSO Observatory, Siding Spring MPS 628790
2015 09 23.60103 00 57 27.50 -26 44 42.3 19.1 R Q60 – ISON-SSO Observatory, Siding Spring MPS 628790
2015 09 23.823547 00 57 20.67 -26 50 48.5 19.0 R K92 – Sutherland-LCO B MPS 628790
2015 09 23.826553 00 57 20.58 -26 50 53.3 19.1 R K92 – Sutherland-LCO B MPS 628790
2015 09 23.858639 00 57 19.38 -26 51 47.2 19.1 R K92 – Sutherland-LCO B MPS 628790
2015 09 23.860025 00 57 19.34 -26 51 49.0 19.1 R K92 – Sutherland-LCO B MPS 628790
2015 09 23.862851 00 57 19.24 -26 51 53.9 19.1 R K92 – Sutherland-LCO B MPS 628790
2015 09 23.864316 00 57 19.19 -26 51 56.6 19.2 R K92 – Sutherland-LCO B MPS 628790
2015 09 23.865764 00 57 19.13 -26 51 59.1 19.3 R K92 – Sutherland-LCO B MPS 628790
2015 09 23.867241 00 57 19.08 -26 52 01.2 19.3 R K92 – Sutherland-LCO B MPS 628790
2015 09 23.868790 00 57 19.01 -26 52 04.2 19.1 R K92 – Sutherland-LCO B MPS 628790
2015 09 24.44986 00 56 59.64 -27 07 56.1 18.9 R Q60 – ISON-SSO Observatory, Siding Spring MPS 628790
2015 09 24.45351 00 56 59.53 -27 08 02.4 19.2 R Q60 – ISON-SSO Observatory, Siding Spring MPS 628790
2015 09 24.45716 00 56 59.41 -27 08 08.0 19.0 R Q60 – ISON-SSO Observatory, Siding Spring MPS 628790
2015 10 16.48521 00 42 21.76 -34 23 51.6 20.3 R Q60 – ISON-SSO Observatory, Siding Spring MPS 631556
2015 10 16.49438 00 42 21.18 -34 23 58.3 20.4 R Q60 – ISON-SSO Observatory, Siding Spring MPS 631556
2015 10 16.50365 00 42 20.84 -34 24 06.0 20.1 R Q60 – ISON-SSO Observatory, Siding Spring MPS 631556
2017 05 18.24615 15 11 38.45 +26 01 24.0 20.6 V G96 – Mt. Lemmon Survey MPS 796556
2017 05 18.25723 15 11 37.76 +26 01 25.0 21.0 V G96 – Mt. Lemmon Survey MPS 796556
2017 05 18.26138 15 11 37.45 +26 01 25.1 21.0 V G96 – Mt. Lemmon Survey MPS 796556
2017 05 18.26554 15 11 37.19 +26 01 25.7 21.3 V G96 – Mt. Lemmon Survey MPS 796556
2017 05 18.49001 15 11 22.792 +26 01 41.90 21.0 i F51 – Pan-STARRS 1, Haleakala MPS 796556
2017 05 18.50254 15 11 21.976 +26 01 42.40 20.8 i F51 – Pan-STARRS 1, Haleakala MPS 796556
2017 05 18.52749 15 11 20.343 +26 01 43.39 20.7 i F51 – Pan-STARRS 1, Haleakala MPS 796556
2017 05 24.42738 15 05 23.376 +25 59 17.42 21.0 w F51 – Pan-STARRS 1, Haleakala MPS 798018
2017 05 24.43897 15 05 22.689 +25 59 15.89 20.8 w F51 – Pan-STARRS 1, Haleakala MPS 798018
2017 05 24.45058 15 05 21.990 +25 59 14.66 20.8 w F51 – Pan-STARRS 1, Haleakala MPS 798018
2017 05 24.46216 15 05 21.280 +25 59 13.20 21.0 w F51 – Pan-STARRS 1, Haleakala MPS 798018
2017 05 25.27505 15 04 34.83 +25 57 30.9 20.8 V G96 – Mt. Lemmon Survey MPS 798018
2017 05 25.27940 15 04 34.57 +25 57 30.3 21.4 V G96 – Mt. Lemmon Survey MPS 798018
2017 05 25.28367 15 04 34.36 +25 57 29.4 20.7 V G96 – Mt. Lemmon Survey MPS 798018
2017 05 25.28792 15 04 34.11 +25 57 28.8 20.8 V G96 – Mt. Lemmon Survey MPS 798018
2017 05 26.33096 15 03 35.567 +25 54 51.53 20.7 w F51 – Pan-STARRS 1, Haleakala MPS 799350
2017 05 26.34317 15 03 34.864 +25 54 49.53 20.8 w F51 – Pan-STARRS 1, Haleakala MPS 799350
2017 05 26.35538 15 03 34.142 +25 54 47.49 20.9 w F51 – Pan-STARRS 1, Haleakala MPS 799350
2017 05 30.38958 15 00 00.003 +25 39 46.16 21.0 w F51 – Pan-STARRS 1, Haleakala MPS 799350
2017 05 30.40321 14 59 59.284 +25 39 42.07 21.0 w F51 – Pan-STARRS 1, Haleakala MPS 799350
2017 05 30.41682 14 59 58.560 +25 39 38.44 21.0 w F51 – Pan-STARRS 1, Haleakala MPS 799350
2017 05 30.43039 14 59 57.842 +25 39 34.57 21.0 w F51 – Pan-STARRS 1, Haleakala MPS 799350
2018 12 12.349140 06 59 21.24 -19 36 24.9 19.70 r I41 – Palomar Mountain--ZTF MPS 942459
2018 12 12.354620 06 59 20.94 -19 36 24.1 19.79 r I41 – Palomar Mountain--ZTF MPS 942459
2018 12 12.358280 06 59 20.70 -19 36 24.0 19.70 r I41 – Palomar Mountain--ZTF MPS 942459
2018 12 12.360100 06 59 20.63 -19 36 23.1 19.68 r I41 – Palomar Mountain--ZTF MPS 942459
2018 12 12.363760 06 59 20.44 -19 36 22.6 19.80 r I41 – Palomar Mountain--ZTF MPS 942459
2018 12 12.365590 06 59 20.32 -19 36 22.6 19.81 r I41 – Palomar Mountain--ZTF MPS 942459
2018 12 12.372910 06 59 19.92 -19 36 21.8 19.75 r I41 – Palomar Mountain--ZTF MPS 942459
2018 12 12.374730 06 59 19.82 -19 36 21.5 19.90 r I41 – Palomar Mountain--ZTF MPS 942459
2018 12 12.382041 06 59 19.41 -19 36 21.0 19.92 r I41 – Palomar Mountain--ZTF MPS 942459
2018 12 12.384780 06 59 19.26 -19 36 20.7 19.77 r I41 – Palomar Mountain--ZTF MPS 942459
2018 12 12.399400 06 59 18.45 -19 36 18.7 19.87 r I41 – Palomar Mountain--ZTF MPS 942459
2018 12 12.401230 06 59 18.37 -19 36 18.9 19.97 r I41 – Palomar Mountain--ZTF MPS 942459
2018 12 12.402140 06 59 18.30 -19 36 18.6 19.67 r I41 – Palomar Mountain--ZTF MPS 942459
2018 12 12.409459 06 59 17.91 -19 36 17.8 19.69 r I41 – Palomar Mountain--ZTF MPS 942459
2018 12 12.420420 06 59 17.31 -19 36 16.5 19.85 r I41 – Palomar Mountain--ZTF MPS 942459
